Location: Carnoy
(49.9849°N, 2.7558°E)
Time: 20:33:45
(UTC+00:00)

Okean O Rocket - Pass Details

Date: 24 January 2020
Orbit: 622 x 645 km, 98.2° (Epoch: 25 February)

Event Time Altitude Azimuth Distance (km) Brightness Sun altitude
Rises 16:57:47 0° 181° (S) 2,934 5.4 -5.0°
Reaches altitude 10° 17:00:03 10° 188° (S) 2,033 4.7 -5.3°
Maximum altitude 17:04:18 45° 261° (W) 887 3.0 -5.9°
Drops below altitude 10° 17:08:36 10° 334° (NNW) 2,055 4.3 -6.6°
Sets 17:10:55 0° 341° (NNW) 2,971 5.0 -6.9°
